DW2649 Weather Reports


time (UTC)temp
F
wind
direction
speed
knots
gust
knots
rain 1hr
in
rain 24hr
in
rain mn
in
humidity
%
barometer
mb
20260509014600 75 178 1.7 6.1 0.00 0.00 0.00 25 1013.4
20260509013109 76 191 1.7 5.2 0.00 0.00 0.00 23 1013.6
20260509011600 78 162 2.6 7.0 0.00 0.00 0.00 22 1013.6
20260509010059 78 242 2.6 7.8 0.00 0.00 0.00 23 1013.7
20260509004600 79 207 2.6 6.1 0.00 0.00 0.00 23 1013.9
20260509003100 79 298 2.6 7.0 0.00 0.00 0.00 23 1014.0
20260509001558 79 246 0.0 5.2 0.00 0.00 0.00 22 1014.1
20260509000115 78 230 5.2 9.6 0.00 0.00 0.00 23 1014.2
20260508234558 79 288 3.5 7.8 0.00 0.00 0.00 22 1014.5
20260508233113 79 321 2.6 7.0 0.00 0.00 0.00 23 1014.5
20260508231559 79 284 4.3 7.8 0.00 0.00 0.00 23 1014.7
20260508230100 79 136 1.7 7.8 0.00 0.00 0.00 22 1014.7
20260508224558 79 285 0.9 7.0 0.00 0.00 0.00 25 1014.9
20260508223057 78 319 3.5 11.3 0.00 0.00 0.00 25 1015.3
20260508221608 78 306 1.7 10.4 0.00 0.00 0.00 25 1015.4
20260508220112 77 299 1.7 8.7 0.00 0.00 0.00 23 1015.9
20260508214609 77 15 4.3 9.6 0.00 0.00 0.00 26 1015.9
20260508213111 77 296 4.3 9.6 0.00 0.00 0.00 23 1016.2
20260508211607 77 349 1.7 8.7 0.00 0.00 0.00 26 1016.2
20260508204601 76 301 3.5 9.6 0.00 0.00 0.00 26 1016.6
20260508203110 76 267 3.5 10.4 0.00 0.00 0.00 30 1016.8
20260508201558 75 246 4.3 11.3 0.00 0.00 0.00 29 1017.0
20260508200112 75 277 4.3 8.7 0.00 0.00 0.00 32 1017.0
20260508194602 74 343 3.5 9.6 0.00 0.00 0.00 32 1017.0
20260508193150 74 293 2.6 10.4 0.00 0.00 0.00 36 1017.1
20260508191602 73 233 5.2 12.2 0.00 0.00 0.00 34 1017.1
20260508190059 72 227 4.3 10.4 0.00 0.00 0.00 32 1017.2
20260508184607 73 234 3.5 9.6 0.00 0.00 0.00 36 1017.2
20260508183125 72 262 5.2 9.6 0.00 0.00 0.00 35 1017.4
20260508181607 72 319 2.6 9.6 0.00 0.00 0.00 37 1017.5
20260508180057 71 260 1.7 7.0 0.00 0.00 0.00 36 1017.6
20260508174604 71 273 2.6 8.7 0.00 0.00 0.00 39 1017.5
20260508173059 70 266 2.6 6.1 0.00 0.00 0.00 40 1017.6
20260508171559 69 222 2.6 9.6 0.00 0.00 0.00 38 1017.7
20260508170100 69 244 4.3 8.7 0.00 0.00 0.00 42 1017.7
20260508164559 69 284 3.5 7.8 0.00 0.00 0.00 46 1017.6
20260508163056 69 258 2.6 7.0 0.00 0.00 0.00 51 1017.4
20260508161557 68 284 1.7 5.2 0.00 0.00 0.00 51 1017.4
20260508160100 67 201 2.6 6.1 0.00 0.00 0.00 51 1017.4
20260508154622 66 221 0.9 4.3 0.00 0.00 0.00 50 1017.4
20260508153100 65 173 0.0 1.7 0.00 0.00 0.00 53 1017.3
20260508151600 64 173 0.9 2.6 0.00 0.00 0.00 53 1017.3
20260508150058 63 0 0.0 2.6 0.00 0.00 0.00 54 1017.3
20260508144609 62 173 0.9 4.3 0.00 0.00 0.00 53 1017.1
20260508143106 60 163 1.7 4.3 0.00 0.00 0.00 52 1017.0
20260508141605 58 0 0.9 2.6 0.00 0.00 0.00 55 1017.1
20260508140056 55 177 0.0 1.7 0.00 0.00 0.00 57 1016.9
20260508134622 53 67 0.0 2.6 0.00 0.00 0.00 63 1016.8
20260508133102 49 0 0.0 0.0 0.00 0.00 0.00 66 1016.6
20260508131608 48 0 0.0 1.7 0.00 0.00 0.00 66 1016.5
20260508130100 47 67 0.0 2.6 0.00 0.00 0.00 66 1016.3
20260508124605 47 71 1.7 3.5 0.00 0.00 0.00 66 1016.1
20260508123100 48 96 0.9 2.6 0.00 0.00 0.00 66 1016.0
20260508121557 48 0 0.9 3.5 0.00 0.00 0.00 65 1015.9
20260508120059 48 96 1.7 3.5 0.00 0.00 0.00 65 1015.7
20260508114603 48 96 1.7 2.6 0.00 0.00 0.00 65 1015.4
20260508113059 48 96 0.9 2.6 0.00 0.00 0.00 64 1015.5
20260508111557 48 96 1.7 3.5 0.00 0.00 0.00 64 1015.3
20260508110114 48 96 1.7 3.5 0.00 0.00 0.00 65 1015.3
20260508104601 48 0 1.7 2.6 0.00 0.00 0.00 65 1015.3
20260508103101 47 96 0.9 2.6 0.00 0.00 0.00 66 1015.2
20260508101559 47 90 0.9 3.5 0.00 0.00 0.00 68 1015.1
20260508100112 47 180 0.9 2.6 0.00 0.00 0.00 69 1015.2
20260508094608 47 180 0.9 2.6 0.00 0.00 0.00 69 1015.1
20260508093107 48 0 0.0 1.7 0.00 0.00 0.00 67 1015.2
20260508091607 49 0 0.0 1.7 0.00 0.00 0.00 65 1015.2
20260508090115 50 0 0.9 1.7 0.00 0.00 0.00 64 1015.1
20260508084605 50 180 0.0 3.5 0.00 0.00 0.00 64 1015.1
20260508083100 49 5 0.0 1.7 0.00 0.00 0.00 64 1015.0
20260508081608 50 5 0.0 2.6 0.00 0.00 0.00 63 1015.0
20260508080101 50 63 0.9 3.5 0.00 0.00 0.00 61 1015.1
20260508074558 50 48 0.9 2.6 0.00 0.00 0.00 61 1015.0
20260508073109 51 33 0.9 2.6 0.00 0.00 0.00 60 1014.9
20260508071607 51 33 0.9 3.5 0.00 0.00 0.00 59 1015.0
20260508064617 52 341 0.9 2.6 0.00 0.00 0.00 60 1014.8
20260508063109 52 341 1.7 2.6 0.00 0.00 0.00 60 1014.7
20260508061609 54 341 0.0 1.7 0.00 0.00 0.00 58 1014.5
20260508060111 55 0 0.0 1.7 0.00 0.00 0.00 56 1014.6
20260508054558 56 341 1.7 3.5 0.00 0.00 0.00 55 1014.7
20260508053101 55 229 0.9 3.5 0.00 0.00 0.00 53 1014.5
20260508051612 56 28 0.9 3.5 0.00 0.00 0.00 52 1014.4
20260508050058 56 26 1.7 4.3 0.00 0.00 0.00 52 1014.3
20260508044558 56 44 0.9 2.6 0.00 0.00 0.00 54 1014.1
20260508043059 57 180 0.0 1.7 0.00 0.00 0.00 53 1014.1
20260508041601 58 180 0.9 2.6 0.00 0.00 0.00 50 1014.1
20260508040100 59 180 1.7 2.6 0.00 0.00 0.00 49 1014.0
20260508034558 59 0 0.0 0.0 0.00 0.00 0.00 47 1014.0
20260508033102 61 0 0.0 0.0 0.00 0.00 0.00 45 1013.7
20260508031600 62 0 0.0 0.0 0.00 0.00 0.00 43 1013.7
20260508030103 64 180 0.9 2.6 0.00 0.00 0.00 40 1013.6
20260508024619 67 0 0.9 1.7 0.00 0.00 0.00 37 1013.5
20260508023058 70 314 0.0 0.9 0.00 0.00 0.00 34 1013.5
20260508021606 72 314 0.9 2.6 0.00 0.00 0.00 30 1013.3
20260508020109 74 332 0.9 2.6 0.00 0.00 0.00 29 1013.4